Flag for U.S.A. Weather past 2 weeks in Billings, Montana, U.S.A.

Now
45 °F

Clear.


Feels Like: 39 °F
Forecast: 40 / 64 °F
Wind: 12 mph from Southwest

Location: Billings Logan International Airport


UV Index: 0 (Low)

Visibility: 10 mi


Pressure: 29.78 "Hg

Humidity: 65%

Dew point: 34 °F

Location of BillingsLocation

Historic Weather in Billings

°F

Billings temperature yesterday

Maximum temperature yesterday: 60 °F (at 12:53 PM)
Minimum temperature yesterday: 38 °F (at 5:53 AM)
Average temperature yesterday: 50 °F

Past Weeks' High & Low Weather Summary

 TemperatureHumidityPressure
High72 °F (Apr 22, 3:53 PM)88% (Apr 17, 2:53 AM)30.41 "Hg (Apr 17, 2:53 AM)
Low25 °F (Apr 14, 5:53 AM)12% (Apr 20, 2:53 PM)29.28 "Hg (Apr 22, 9:53 PM)
Average48 °F45%29.91 "Hg
* Reported Apr 10 12:53 AM — Apr 25 12:53 AM, Billings, Weather by CustomWeather, © 2014

Note: Actual official high and low records may vary slightly from our data, if they occured in-between our weather recording intervals... More about our weather records

Advertising

Historic Weather Conditions — Data for Previous 24 hours

 ConditionsComfort  
Time TempWeatherWind HumidityBarometerVisibility
12:53 AM
Apr 25
45 °FClear.12 mph65%29.78 "Hg10 mi
11:53 PM
Apr 24
49 °FClear.13 mph55%29.78 "Hg10 mi
10:53 PM49 °FPassing clouds.17 mph57%29.78 "Hg10 mi
9:53 PM49 °FPassing clouds.17 mph59%29.80 "Hg10 mi
8:53 PM51 °FPartly sunny.20 mph52%29.80 "Hg10 mi
7:53 PM55 °FBroken clouds.8 mph40%29.77 "Hg10 mi
6:53 PM59 °FScattered clouds.18 mph32%29.75 "Hg10 mi
5:53 PM59 °FPartly sunny.22 mph33%29.74 "Hg10 mi
4:53 PM58 °FBroken clouds.6 mph36%29.75 "Hg10 mi
3:53 PM56 °FPartly sunny.12 mph37%29.76 "Hg10 mi
2:53 PM59 °FMostly cloudy.20 mph29%29.74 "Hg10 mi
1:53 PM59 °FMostly cloudy.13 mph25%29.74 "Hg10 mi
12:53 PM60 °FPartly sunny.8 mph24%29.76 "Hg10 mi
11:53 AM57 °FBroken clouds.7 mph26%29.80 "Hg10 mi
10:53 AM54 °FPartly sunny.8 mph30%29.81 "Hg10 mi
9:53 AM49 °FScattered clouds.No wind36%29.85 "Hg10 mi
8:53 AM47 °FPassing clouds.5 mph44%29.86 "Hg10 mi
7:53 AM41 °FScattered clouds.7 mph51%29.87 "Hg10 mi
6:53 AM39 °FPassing clouds.10 mph53%29.86 "Hg10 mi
5:53 AM38 °FPassing clouds.6 mph58%29.84 "Hg10 mi
4:53 AM40 °FPassing clouds.9 mph55%29.83 "Hg10 mi
3:53 AM42 °FPassing clouds.8 mph51%29.82 "Hg10 mi
2:53 AM42 °FPassing clouds.12 mph49%29.81 "Hg10 mi
Weather by CustomWeather, © 2014

See weather overview